Chamberlain, SD

12:50 PM CDT on October 23, 2017 (GMT -0500)
Chamberlain

Weather History for K9V9 - August, 2013

Change the Weather History Date:

Wednesday, August 28, 2013

  Actual Average Record
Temperature  
Mean Temperature 84 °F -  
Max Temperature 95 °F 84 °F 106 °F (2012)
Min Temperature 72 °F 58 °F 50 °F (2004)
Cooling Degree Days 18    
Growing Degree Days 34 (Base 50)    
Moisture  
Dew Point 70 °F    
Average Humidity 70    
Maximum Humidity 94    
Minimum Humidity 49    
Precipitation  
Precipitation 0.00 in - - ()
Sea Level Pressure  
Sea Level Pressure 29.89 in    
Wind  
Wind Speed 10 mph (SE)    
Max Wind Speed 23 mph    
Max Gust Speed 31 mph    
Averages and records for this station are not official NWS values.
T = Trace of Precipitation, MM = Missing Value Source: NWS Daily Summary

Daily Weather History Graph

Daily Weather History Graph

Search for Another Location

Airport or City:

Trip Planner

Search our weather history database for the weather conditions in past years. The results will help you decide how hot, cold, wet, or windy it might be!

Date:

Astronomy

Aug. 28, 2013 Rise Set
Actual Time 6:56 AM CDT 8:19 PM CDT
Civil Twilight 6:26 AM CDT 8:49 PM CDT
Nautical Twilight 5:50 AM CDT 9:25 PM CDT
Astronomical Twilight 5:12 AM CDT 10:03 PM CDT
Moon 12:00 AM CDT (8/28) 3:04 PM CDT (8/28)
Length of Visible Light 14h 22m
Length of Day
13h 22m
Waning Gibbous, 47% of the Moon is Illuminated
Aug 28
Waning Gibbous
Sep 5
New
Sep 12
First Quarter
Sep 19
Full
Sep 26
Last Quarter

Hourly Weather History & Observations

Time (CDT) Temp. Heat Index Dew Point Humidity Pressure Visibility Wind Dir Wind Speed Gust Speed Precip Events Conditions
12:52 AM 78.1 °F - 73.0 °F 84% 29.85 in - SE 8.1 mph - N/A   Unknown
1:52 AM 78.1 °F - 73.0 °F 84% 29.85 in - SE 8.1 mph - N/A   Unknown
2:52 AM 77.0 °F - 73.0 °F 88% 29.84 in - SE 8.1 mph - N/A   Unknown
3:52 AM 75.0 °F - 73.0 °F 94% 29.85 in - SSE 5.8 mph - N/A   Unknown
4:52 AM 75.0 °F - 73.0 °F 94% 29.83 in - South 8.1 mph - N/A   Unknown
5:52 AM 73.9 °F - 71.1 °F 91% 29.84 in - SSE 6.9 mph - N/A   Unknown
6:52 AM 75.0 °F - 72.0 °F 90% 29.88 in - ENE 9.2 mph - N/A   Unknown
7:52 AM 72.0 °F - 66.9 °F 84% 29.94 in - East 21.9 mph 31.1 mph N/A   Unknown
8:52 AM 77.0 °F - 66.0 °F 69% 29.93 in - ESE 13.8 mph - N/A   Unknown
9:52 AM 82.9 °F 85.0 °F 66.0 °F 56% 29.93 in - ESE 12.7 mph - N/A   Unknown
10:52 AM 82.0 °F 83.8 °F 64.9 °F 56% 29.93 in - SE 16.1 mph 25.3 mph N/A   Unknown
11:52 AM 82.0 °F 83.1 °F 63.0 °F 52% 29.99 in - NE 12.7 mph - N/A   Unknown
12:52 PM 84.0 °F 85.8 °F 64.9 °F 53% 29.91 in - SSE 21.9 mph - N/A   Unknown
1:52 PM 89.1 °F 96.0 °F 72.0 °F 57% 29.89 in - South 23.0 mph 28.8 mph N/A   Unknown
2:52 PM 90.0 °F 97.9 °F 73.0 °F 57% 29.93 in - SW 8.1 mph - N/A   Unknown
3:52 PM 95.0 °F 104.5 °F 73.0 °F 49% 29.89 in - SW 11.5 mph - N/A   Unknown
4:52 PM 91.0 °F 96.6 °F 70.0 °F 50% 29.86 in - SSW 15.0 mph - N/A   Unknown
5:52 PM 90.0 °F 95.4 °F 70.0 °F 52% 29.88 in - WSW 6.9 mph - N/A   Unknown
6:52 PM 86.0 °F 91.5 °F 71.1 °F 61% 29.88 in - NE 9.2 mph - N/A   Unknown
7:52 PM 82.9 °F 88.8 °F 73.0 °F 72% 29.89 in - East 5.8 mph - N/A   Unknown
8:52 PM 81.0 °F 85.8 °F 73.0 °F 77% 29.89 in - East 6.9 mph - N/A   Unknown
9:52 PM 81.0 °F 85.2 °F 72.0 °F 74% 29.89 in - SSE 10.4 mph - N/A   Unknown
10:52 PM 79.0 °F - 71.1 °F 77% 29.90 in - South 9.2 mph - N/A   Unknown
11:52 PM 75.9 °F - 64.9 °F 69% 29.91 in - SW 9.2 mph - N/A   Unknown